Theta_e
317 313 313 313 318 321 326 328 325 327 328 329 338 346 347 345 347 351 345 343 345 349 348 348 345 345 337 334 330 330 335 337 337 336 332 327 323 322 323 324 329 338 336 335 334 333 329 324 322
316 314 313 314 316 320 323 325 327 328 326 325 326 329 336 342 344 343 343 344 345 348 345 345 345 342 337 332 328 326 330 331 330 328 326 326 321 323 325 325 325 333 337 336 330 323 322 322 322
317 313 313 315 315 316 319 323 326 327 325 325 327 334 342 344 342 344 343 340 345 347 344 344 344 340 337 333 329 323 324 324 324 324 323 323 320 324 325 324 325 325 326 325 324 325 324 322 322
311 312 313 315 315 315 317 322 323 325 325 323 323 324 342 352 349 346 344 344 345 346 345 344 343 340 337 334 331 325 323 323 323 322 321 320 321 324 325 326 326 325 325 326 328 328 325 322 322
310 312 315 316 315 315 316 319 319 322 321 321 318 325 327 331 340 349 346 346 345 345 345 344 343 340 337 335 333 328 322 321 321 319 319 320 323 324 324 324 324 324 324 325 324 325 323 322 322
315 311 314 316 317 315 315 315 317 318 318 318 318 319 327 339 353 348 348 347 346 344 345 344 343 340 338 336 335 330 323 320 319 319 320 321 323 323 323 323 324 324 323 322 321 321 322 323 324
320 315 315 315 315 315 315 314 316 317 317 318 317 319 327 342 354 352 349 347 346 344 343 344 344 341 339 337 336 332 327 319 319 320 321 322 323 323 324 324 324 323 323 322 321 321 322 328 329
317 316 316 315 315 315 315 314 314 315 316 316 315 317 320 335 349 353 349 347 347 345 343 344 344 342 338 336 336 334 331 323 319 320 321 322 324 324 325 323 324 324 323 322 322 323 325 328 331
315 320 318 317 315 315 313 314 313 314 315 315 316 317 330 325 338 353 349 348 349 347 345 345 345 344 340 337 335 335 333 330 321 320 322 324 325 325 323 323 325 326 328 328 328 328 328 325 323
316 318 319 318 317 315 315 315 315 316 316 316 318 318 326 333 334 346 350 349 350 347 346 346 346 345 341 338 337 336 335 334 328 322 321 323 324 324 324 324 324 324 324 323 322 323 323 323 323
312 316 317 316 317 315 316 315 315 316 317 317 318 318 328 348 348 344 351 351 348 347 345 345 346 345 343 340 339 337 336 336 334 328 323 321 322 324 324 324 324 323 323 323 324 330 330 326 333
313 312 312 314 314 313 315 316 319 318 317 318 317 317 320 347 351 353 354 353 350 346 344 344 346 346 344 342 341 340 337 337 337 335 329 324 322 321 324 324 323 324 325 325 326 336 336 337 338
311 310 312 313 313 314 314 315 315 316 318 319 319 320 320 326 346 352 354 353 351 347 344 344 344 346 345 344 342 341 339 338 338 337 335 329 325 323 321 324 325 325 334 332 331 338 340 340 340
309 310 311 311 311 313 314 314 315 315 316 317 318 319 320 320 337 350 353 352 350 347 343 343 343 344 345 344 342 341 340 339 338 338 337 332 326 324 324 322 324 335 340 341 341 341 341 341 341
311 312 312 312 312 312 312 314 315 314 315 316 318 319 319 319 322 343 350 352 349 347 343 342 342 342 344 343 341 341 340 340 339 338 337 333 326 324 324 322 325 339 341 341 342 343 342 342 341
310 309 311 313 313 311 313 312 315 314 314 315 315 315 316 318 324 344 350 350 348 347 344 341 339 339 340 338 336 337 338 340 340 339 336 328 324 324 323 322 333 341 341 341 343 340 342 338 340
309 309 310 312 314 312 313 312 313 314 315 315 315 315 315 317 330 349 352 351 350 348 345 341 337 335 335 335 333 332 334 338 339 337 330 324 324 323 332 334 337 339 341 343 342 338 334 332 328
310 309 309 310 312 313 314 313 314 314 316 316 316 316 317 317 329 351 352 351 351 349 346 341 337 335 335 334 330 331 334 337 336 331 327 325 324 323 331 339 342 343 342 340 338 335 334 330 334
311 311 311 310 310 313 313 315 315 315 315 316 316 317 317 318 328 350 352 352 351 349 342 338 336 335 335 333 329 331 335 333 331 330 330 329 330 325 334 341 344 345 341 337 334 332 332 330 335
311 312 312 311 310 310 311 312 314 315 316 316 317 317 318 318 335 348 350 351 351 347 342 339 339 338 336 331 331 333 333 330 331 332 334 337 339 334 331 335 340 341 335 335 333 330 332 336 336
312 312 312 311 311 310 310 310 311 313 314 315 317 317 318 318 333 347 349 350 351 349 347 346 345 342 336 332 332 332 331 332 333 336 338 342 342 342 341 339 340 336 333 332 332 330 334 335 328
314 312 311 311 311 312 311 310 310 312 313 316 317 318 317 318 329 344 347 348 350 350 349 348 347 344 337 333 332 332 335 337 336 341 343 343 343 342 340 333 334 333 334 331 330 336 334 325 323
315 312 312 312 312 311 310 312 312 313 316 316 318 318 318 318 325 341 346 348 349 350 349 348 348 345 337 334 333 338 341 341 341 343 343 343 339 335 331 330 330 330 330 331 335 335 324 319 316
313 313 312 311 311 311 310 311 311 313 316 318 317 319 318 317 323 341 345 346 347 348 348 348 348 343 337 335 335 340 341 343 342 342 341 337 334 330 330 332 332 333 333 335 331 321 316 314 312
313 314 315 315 314 312 310 310 311 315 317 318 319 319 318 317 329 341 346 346 346 347 348 347 346 340 338 338 340 341 344 343 340 339 339 336 333 334 331 329 329 332 334 327 318 314 312 312 311
315 313 313 312 312 311 311 312 312 312 316 318 319 319 317 316 332 342 345 345 346 346 346 346 344 340 341 341 342 341 341 339 337 331 334 332 328 329 327 328 332 325 317 315 313 312 311 310 309
314 314 311 314 310 310 311 312 314 312 315 318 319 318 318 316 334 343 346 345 344 344 345 345 343 341 342 343 342 341 339 333 334 330 333 332 329 329 330 332 324 316 314 313 312 312 310 308 308
313 311 313 313 313 313 310 311 312 315 314 318 320 319 318 318 331 342 344 342 342 342 342 343 342 342 342 342 342 338 330 331 330 332 333 333 333 333 329 319 316 314 313 312 312 309 308 308 309
315 314 313 312 313 316 313 311 312 319 317 320 321 319 318 324 331 339 340 340 340 342 341 342 343 343 343 342 340 334 331 330 331 332 332 332 331 324 317 315 314 313 313 311 308 308 310 311 311
313 314 313 315 311 315 322 318 317 320 321 321 321 317 323 331 336 336 337 337 337 339 342 342 343 343 341 340 335 331 331 332 332 333 332 329 323 316 315 314 313 313 310 308 309 311 312 312 314
Wind_Speed
10 8 7 7 5 3 8 8 2 6 4 3 6 5 6 4 3 0 5 20 21 35 35 33 30 28 26 22 19 20 23 22 19 17 15 15 17 20 19 18 17 16 17 16 14 12 10 9 10
10 8 9 3 5 9 10 8 12 9 4 3 5 8 11 13 11 7 3 19 20 35 36 35 32 29 25 22 18 19 21 21 19 17 16 17 19 20 18 17 16 15 15 14 13 11 10 9 9
10 11 6 4 6 15 10 7 14 13 10 6 5 5 4 3 8 7 3 18 26 35 35 35 32 30 25 22 19 19 20 19 19 18 18 19 20 19 17 16 15 14 14 14 12 11 10 9 9
10 7 1 7 15 12 13 4 8 11 12 6 4 8 5 6 3 6 10 18 30 35 36 34 32 29 26 23 20 19 19 19 19 19 20 21 21 19 17 15 14 13 13 12 12 11 10 9 9
12 4 6 8 17 6 12 12 4 5 2 5 1 5 5 10 9 7 12 25 36 38 37 35 32 29 26 23 20 18 18 19 20 20 21 21 20 18 16 14 12 12 11 11 11 10 9 8 7
7 2 6 18 18 8 10 7 13 13 10 7 6 9 5 5 4 5 18 29 35 37 38 36 33 30 27 24 21 17 17 19 20 21 21 20 18 17 15 14 13 12 12 12 12 11 10 9 8
8 5 14 14 13 14 10 9 20 18 21 20 7 6 6 6 8 10 18 30 35 36 36 36 34 30 27 24 21 18 17 18 20 20 20 19 18 16 16 15 13 12 12 12 12 11 10 9 7
8 3 12 10 13 13 4 10 12 23 24 24 11 7 7 6 9 13 22 28 34 36 37 37 35 33 30 27 23 20 18 17 19 20 19 18 17 17 16 15 14 13 12 12 12 11 10 8 6
9 8 14 17 14 7 4 11 7 6 17 8 8 17 1 7 8 15 26 28 31 36 38 38 37 35 32 29 26 23 20 18 18 20 19 18 18 18 17 15 14 13 12 11 10 9 8 7 7
11 12 18 6 12 9 8 16 8 5 8 14 12 15 8 14 18 20 31 33 33 37 39 39 38 37 34 32 29 26 23 22 20 20 20 19 18 17 16 15 15 13 11 10 9 8 7 7 7
9 16 11 7 1 6 15 15 12 13 19 16 17 13 8 13 21 25 32 35 39 36 41 41 40 38 36 35 32 29 27 24 22 19 19 19 19 18 17 16 14 13 11 10 8 7 7 8 8
11 12 17 16 15 11 10 7 9 16 25 11 15 10 8 10 20 26 31 33 38 39 41 41 40 39 38 35 32 30 29 27 24 21 18 18 19 19 17 15 13 11 10 10 9 8 6 5 5
13 18 14 11 12 14 17 19 18 24 18 20 26 21 17 14 17 22 24 25 30 37 41 41 40 39 37 35 33 31 30 27 24 21 19 18 17 17 17 15 13 11 10 9 10 9 6 4 4
3 6 11 15 24 18 15 23 19 18 18 28 26 28 21 19 19 21 24 30 34 37 41 40 39 37 36 35 33 32 29 27 24 22 19 17 16 16 15 15 14 13 10 9 8 6 5 6 7
9 12 9 14 16 14 17 23 32 24 25 20 16 20 18 18 18 28 28 31 33 36 38 40 38 37 36 35 32 31 29 27 25 22 19 17 16 15 15 15 15 13 10 9 6 7 7 8 9
10 9 8 1 11 18 16 29 27 13 22 33 29 35 29 24 19 26 28 32 31 33 38 37 37 37 35 34 31 30 28 26 24 22 19 17 15 14 14 16 16 12 12 9 8 7 4 8 13
5 9 8 6 5 7 20 27 7 9 23 20 20 28 26 23 17 24 29 34 39 39 38 37 37 36 33 30 28 25 25 24 23 21 18 16 15 15 16 14 15 15 11 8 5 3 4 6 5
7 8 8 11 4 13 19 26 16 24 16 16 16 22 22 22 19 26 28 33 38 36 36 36 34 33 31 27 23 23 24 23 22 19 16 14 14 16 17 15 14 13 9 7 6 5 5 2 16
14 16 16 12 10 11 19 16 17 17 26 22 22 21 19 18 19 27 29 35 37 34 37 35 35 31 29 27 27 25 26 23 21 18 16 16 15 16 18 17 17 16 13 9 7 5 5 13 23
20 21 19 17 15 14 22 22 20 17 24 21 22 25 22 13 18 28 31 35 37 38 36 36 35 31 31 30 29 27 26 23 19 17 16 14 15 17 18 16 17 17 13 13 10 8 9 24 18
21 21 16 20 11 17 18 23 26 24 28 25 26 28 24 19 23 30 32 36 38 39 37 33 32 31 30 30 28 25 22 20 19 17 15 14 13 13 12 15 13 18 11 7 7 9 21 14 13
23 18 18 17 9 10 10 13 18 15 26 22 27 27 28 20 26 32 35 35 37 36 36 34 30 30 29 28 26 22 19 19 18 15 15 13 12 11 8 5 15 3 17 10 18 18 11 10 12
22 16 15 16 16 14 17 10 19 17 17 23 24 29 29 22 28 33 33 36 33 35 35 34 31 31 31 28 26 23 18 16 12 14 13 13 13 7 13 12 19 19 13 17 15 12 9 10 8
4 9 8 10 10 10 25 17 15 17 24 20 24 28 30 22 27 30 31 33 34 32 33 35 34 32 30 28 25 21 19 17 16 14 10 13 13 18 17 11 7 10 15 11 8 7 8 8 8
11 9 5 7 7 14 13 16 20 19 22 23 25 27 27 21 25 29 30 29 32 33 35 34 34 30 27 24 21 18 16 15 10 7 7 11 21 19 20 7 11 15 12 7 7 6 7 7 8
13 17 6 8 9 12 13 15 18 30 23 14 20 22 19 20 25 27 29 32 34 34 33 34 32 29 25 22 22 18 15 5 9 10 14 18 23 25 18 13 11 7 6 5 5 5 7 9 9
3 11 10 4 11 9 15 17 16 25 21 21 18 21 24 24 26 28 28 29 34 33 33 32 31 28 25 23 20 15 14 15 16 13 16 27 24 19 17 9 8 7 6 4 4 7 9 9 9
4 6 6 5 5 10 14 22 13 22 25 19 18 21 24 23 27 28 28 30 32 31 30 28 26 26 26 22 20 23 23 19 19 15 20 19 16 13 10 12 10 8 6 5 5 7 6 6 5
5 4 4 5 8 6 10 15 19 14 24 22 21 29 29 27 30 29 28 31 33 31 28 26 26 26 26 25 26 29 23 22 19 17 16 15 14 12 13 12 9 7 3 4 5 3 3 2 2
12 7 15 9 9 8 7 4 13 16 15 21 19 27 30 30 30 30 34 35 34 30 29 28 29 28 25 25 33 31 22 20 18 15 17 17 16 15 11 8 6 3 3 1 1 1 3 4 6
Wind_Direction
231 225 204 167 217 241 228 222 244 207 242 198 138 199 251 248 206 44 275 179 187 177 174 172 174 173 171 171 170 172 168 169 169 166 165 163 159 154 153 154 153 150 151 152 150 155 156 149 143
210 195 175 157 227 216 223 218 208 203 227 227 288 250 264 268 244 282 13 172 180 178 173 173 173 172 170 168 173 176 174 175 175 175 172 167 161 157 156 155 153 149 153 156 159 158 155 152 147
199 181 177 202 218 225 238 200 221 236 229 274 289 248 257 264 245 232 282 162 173 177 173 173 172 172 170 170 174 175 176 177 176 176 175 170 163 160 160 158 154 153 158 164 164 162 160 160 161
174 174 135 231 219 226 228 188 222 222 251 224 260 261 247 292 282 229 212 182 172 176 174 174 173 173 171 172 173 173 176 179 178 177 173 169 165 164 164 164 165 166 167 168 172 173 171 170 171
177 176 220 236 236 240 229 229 149 193 241 180 295 263 264 297 289 269 195 177 174 175 175 174 176 176 174 173 173 173 175 176 177 174 172 169 168 168 169 172 176 177 177 176 178 179 178 176 178
182 179 221 231 229 226 239 230 242 247 249 263 274 273 272 271 247 200 185 174 178 175 176 176 177 177 177 176 174 174 174 174 174 172 172 172 173 173 176 180 180 181 183 181 179 179 179 177 176
224 207 231 248 243 243 233 210 228 239 262 257 248 279 284 277 232 190 181 176 177 180 179 178 178 179 181 179 177 176 176 174 175 173 174 176 178 180 182 182 182 181 178 176 175 175 175 174 179
209 237 238 231 229 254 218 202 233 215 239 252 243 243 245 235 225 201 180 178 178 180 182 182 181 181 181 181 180 177 176 174 177 177 178 180 181 182 185 182 179 175 170 169 168 166 169 180 189
186 231 239 234 221 222 185 213 201 225 226 213 215 232 182 299 235 189 178 178 178 183 185 185 186 184 185 184 181 179 178 177 178 183 184 183 184 184 185 184 180 178 175 170 169 170 179 187 202
205 226 235 228 240 243 244 239 213 247 222 231 243 243 287 248 236 207 185 182 181 185 187 188 189 188 187 186 185 184 182 182 183 187 189 190 190 189 189 188 187 187 185 182 180 178 184 200 213
222 239 232 185 279 276 272 255 241 250 250 233 236 244 335 202 207 206 196 195 188 187 190 191 192 191 191 191 190 189 189 190 189 191 193 196 197 196 194 194 192 191 189 187 185 183 199 208 209
251 248 249 261 281 300 288 295 283 245 246 248 248 261 297 222 210 203 197 192 189 190 192 193 193 193 195 197 197 197 196 196 195 195 197 201 204 206 203 200 195 194 198 204 191 185 200 214 235
241 250 247 258 280 284 289 272 270 260 251 253 259 268 271 256 234 218 207 193 186 192 196 197 196 197 199 201 202 203 203 203 203 202 204 207 210 212 211 207 201 202 195 193 185 207 223 226 241
307 296 274 264 257 261 276 279 276 251 252 254 255 263 265 253 241 223 209 198 193 194 200 198 198 200 202 204 207 210 209 209 209 211 213 215 215 214 214 211 205 194 194 194 207 220 228 248 262
284 283 277 249 242 242 250 273 249 259 253 260 246 246 246 256 266 226 214 205 198 197 199 201 198 201 205 208 211 214 214 213 212 215 218 221 220 215 213 210 201 196 201 216 230 239 250 273 292
276 280 276 329 228 224 202 254 255 249 236 249 252 256 255 258 264 221 210 205 199 199 202 204 201 204 207 212 216 217 218 215 215 219 222 223 219 214 209 205 195 198 213 232 239 248 266 318 320
245 261 250 276 265 230 210 245 276 261 249 261 256 258 256 254 241 211 203 213 210 207 205 204 204 208 210 212 218 219 218 216 218 220 222 220 217 210 201 193 196 209 223 228 234 244 299 357 353
250 254 255 260 236 228 234 248 254 275 285 287 291 267 256 244 227 204 202 211 209 208 208 205 205 209 210 212 214 212 211 212 216 218 220 218 217 212 206 204 207 212 210 204 222 218 257 153 274
261 262 262 261 272 285 260 273 272 274 274 268 267 267 263 243 217 202 196 211 203 204 205 203 206 208 210 208 207 206 207 209 212 214 217 217 216 212 211 215 223 217 205 207 185 191 237 267 284
252 257 259 263 250 257 264 270 269 261 264 263 266 261 259 242 198 191 201 201 196 197 199 203 206 206 206 206 206 206 202 205 209 212 213 209 211 214 217 227 233 185 183 162 155 154 252 268 276
244 249 253 253 262 259 266 270 265 254 258 257 254 253 254 234 199 190 189 196 196 199 197 199 202 204 205 206 207 207 206 203 204 205 207 215 224 229 239 242 236 181 141 40 195 213 267 274 277
257 241 239 242 243 254 206 265 258 249 245 240 243 242 242 228 204 190 192 192 195 195 195 199 205 207 208 207 208 207 201 201 203 205 213 217 232 216 193 190 140 273 235 218 195 267 277 270 285
255 247 234 237 239 263 249 256 263 242 240 227 229 233 237 227 201 193 186 191 195 194 193 200 207 209 210 204 206 203 201 201 198 204 204 158 143 102 70 105 111 125 187 206 252 269 264 275 290
250 215 236 222 233 242 241 224 251 233 220 225 222 222 230 215 199 193 185 191 191 191 195 201 205 205 201 200 203 208 217 208 194 176 175 136 124 112 112 117 152 207 234 255 260 262 275 286 303
186 155 179 197 198 240 234 233 235 208 226 224 217 212 216 209 193 185 181 180 187 192 196 197 201 197 195 195 196 200 212 208 219 270 245 156 144 137 123 153 188 233 245 239 238 269 287 306 326
199 193 190 212 214 247 219 226 231 232 242 243 241 214 201 192 185 183 182 186 188 187 190 195 195 192 187 189 194 196 214 198 175 170 169 149 140 138 135 186 240 198 202 218 251 275 299 314 324
183 208 207 316 247 256 223 232 250 230 228 236 240 197 188 186 178 178 172 178 182 180 187 192 191 187 187 190 194 200 169 166 172 150 156 154 151 139 154 187 185 175 195 227 273 287 302 312 324
203 196 170 217 241 233 231 228 232 204 214 221 212 197 184 178 168 163 163 169 170 175 179 185 187 188 189 193 189 163 157 169 162 143 142 152 157 150 151 150 162 183 203 233 284 302 313 326 328
187 182 191 250 238 267 275 225 210 219 200 204 201 185 173 168 161 154 149 158 168 172 176 173 177 180 179 169 169 165 166 164 156 140 143 159 166 153 152 155 167 191 222 284 294 315 331 357 69
202 200 205 220 226 234 282 204 191 208 195 195 195 168 162 153 150 146 151 161 162 162 163 168 168 167 164 167 167 169 171 164 154 144 144 149 154 148 158 165 177 214 274 298 313 50 58 88 93